Location: Unspecified
(40.7945°N, 111.1337°W)
Time: 01:01:50
(UTC-06:00)

ISS - Pass Details

Date: 31 March 2019
Orbit: 408 x 410 km, 51.6° (Epoch: 24 April)

Event Time Altitude Azimuth Distance (km) Brightness Sun altitude
Rises 22:20:19 0° 311° (NW) 2,332 1.3 -27.6°
Reaches altitude 10° 22:22:36 10° 324° (NW) 1,468 -0.1 -28.0°
Enters shadow 22:23:31 16° 335° (NNW) 1,172 -0.9 -28.1°
